Location: Lancaster
(34.6980°N, 118.1360°W)
Time: 11:05:22
(UTC-08:00)

Vanguard 1 - Visible Passes

Search period start: 21 November 2017 00:00
Search period end: 01 December 2017 00:00
Orbit: 650 x 3834 km, 34.2° (Epoch: 17 November)

Date Brightness Start Highest point End Pass type
(mag) Time Alt. Az. Time Alt. Az. Time Alt. Az.
21 Nov 9.2 18:33:26 10° W 18:37:51 79° S 18:38:30 64° ESE visible
22 Nov 9.5 18:54:29 10° W 18:58:27 62° SW 18:58:27 62° SW visible
23 Nov 10.5 19:15:31 10° W 19:18:26 37° WSW 19:18:26 37° WSW visible
24 Nov 9.2 17:15:59 10° W 17:20:58 85° S 17:25:25 10° E visible
24 Nov 11.4 19:36:39 10° W 19:38:27 22° WSW 19:38:27 22° WSW visible
25 Nov 9.3 17:37:08 10° W 17:41:57 76° S 17:45:46 14° ESE visible
25 Nov 12.1 19:57:56 10° W 19:58:30 13° WSW 19:58:30 13° WSW visible
26 Nov 9.5 17:58:17 10° W 18:02:55 61° SSW 18:05:51 20° ESE visible
27 Nov 10.0 18:19:27 10° W 18:23:50 45° SSW 18:26:00 25° SE visible
28 Nov 10.6 18:40:42 10° W 18:44:42 31° SSW 18:46:11 25° SSE visible
29 Nov 11.2 19:02:10 10° WSW 19:05:34 21° SSW 19:06:27 20° S visible
30 Nov 9.9 17:01:28 10° W 17:06:58 59° SSW 17:11:17 10° ESE visible
30 Nov 11.8 19:24:17 10° WSW 19:26:24 13° SSW 19:26:48 13° SSW visible
